BEL9BP EDDM-EBBR

Flight info

Callsign BEL9BP
Flight time 0h 57m
Altitude 32000
Route GIVMI6S/26L GIVMI Y101 INBED DCT REKDI DCT OSBIT DCT TEKTU DCT TESGA DCT UMUPU T880 BATTY
Aircraft A319/M-DE3FGIJ1LORVWY/H

Departure

Time 2026-05-05 14:18
Airport Munich Airport (EDDM)

Arrival

Time 2026-05-05 15:15
Airport Brussels Airport (EBBR)
Time Latitude Longitude Altitude Speed Heading
2026-05-05 13:14 48.35159 11.79335 1467 ft 0 kts 263°
2026-05-05 14:06 48.35159 11.79337 1495 ft 2 kts 263°
2026-05-05 14:07 48.35161 11.79361 1460 ft 2 kts 265°
2026-05-05 14:07 48.35163 11.79386 1463 ft 2 kts 265°
2026-05-05 14:07 48.35164 11.79411 1462 ft 2 kts 267°
2026-05-05 14:07 48.35164 11.79435 1462 ft 2 kts 270°
2026-05-05 14:08 48.35164 11.79460 1462 ft 2 kts 276°
2026-05-05 14:08 48.35161 11.79484 1461 ft 2 kts 292°
2026-05-05 14:08 48.35152 11.79505 1461 ft 2 kts 341°
2026-05-05 14:08 48.35144 11.79508 1464 ft 0 kts 355°
2026-05-05 14:09 48.35143 11.79509 1464 ft 0 kts 355°
2026-05-05 14:12 48.35146 11.79508 1467 ft 2 kts 355°
2026-05-05 14:12 48.35177 11.79503 1467 ft 7 kts 353°
2026-05-05 14:13 48.35248 11.79490 1461 ft 13 kts 353°
2026-05-05 14:13 48.35358 11.79471 1464 ft 18 kts 353°
2026-05-05 14:13 48.35483 11.79448 1465 ft 18 kts 353°
2026-05-05 14:13 48.35610 11.79427 1466 ft 19 kts 355°
2026-05-05 14:14 48.35740 11.79406 1462 ft 19 kts 353°
2026-05-05 14:14 48.35873 11.79399 1458 ft 19 kts 20°
2026-05-05 14:14 48.35943 11.79510 1465 ft 14 kts
2026-05-05 14:14 48.36041 11.79491 1465 ft 15 kts 353°
2026-05-05 14:15 48.36149 11.79472 1467 ft 17 kts 353°
2026-05-05 14:15 48.36222 11.79567 1458 ft 17 kts 86°
2026-05-05 14:15 48.36235 11.79755 1468 ft 20 kts 83°
2026-05-05 14:15 48.36253 11.79981 1464 ft 24 kts 83°
2026-05-05 14:16 48.36273 11.80240 1468 ft 25 kts 83°
2026-05-05 14:16 48.36295 11.80483 1463 ft 14 kts 75°
2026-05-05 14:16 48.36367 11.80469 1461 ft 14 kts 298°
2026-05-05 14:16 48.36409 11.80328 1466 ft 16 kts 294°
2026-05-05 14:17 48.36455 11.80168 1462 ft 18 kts 294°
2026-05-05 14:17 48.36509 11.80038 1462 ft 9 kts 349°
2026-05-05 14:17 48.36526 11.79984 1464 ft 7 kts 263°
2026-05-05 14:17 48.36512 11.79802 1464 ft 47 kts 263°
2026-05-05 14:18 48.36443 11.78906 1470 ft 123 kts 263°
2026-05-05 14:18 48.36324 11.77406 1810 ft 149 kts 265°
2026-05-05 14:18 48.36208 11.75877 2594 ft 147 kts 262°
2026-05-05 14:18 48.36091 11.74357 3343 ft 146 kts 263°
2026-05-05 14:19 48.35973 11.72839 4025 ft 147 kts 263°
2026-05-05 14:19 48.35857 11.71316 4719 ft 148 kts 262°
2026-05-05 14:19 48.35732 11.69687 5187 ft 168 kts 262°
2026-05-05 14:19 48.35803 11.67818 5552 ft 194 kts 286°
2026-05-05 14:20 48.36499 11.65915 5910 ft 222 kts 301°
2026-05-05 14:20 48.37362 11.63847 6427 ft 246 kts 301°
2026-05-05 14:20 48.38314 11.61545 7030 ft 269 kts 300°
2026-05-05 14:20 48.39320 11.59101 7943 ft 279 kts 300°
2026-05-05 14:21 48.40352 11.56572 9075 ft 287 kts 299°
2026-05-05 14:21 48.41046 11.54863 9763 ft 291 kts 299°
2026-05-05 14:21 48.42115 11.52238 10699 ft 296 kts 299°
2026-05-05 14:21 48.43199 11.49575 11640 ft 301 kts 299°
2026-05-05 14:22 48.44800 11.46059 12888 ft 310 kts 310°
2026-05-05 14:22 48.45854 11.44589 13533 ft 311 kts 322°
2026-05-05 14:22 48.47711 11.42960 14729 ft 304 kts 335°
2026-05-05 14:22 48.49744 11.42053 15615 ft 307 kts 348°
2026-05-05 14:23 48.51833 11.41484 16417 ft 311 kts 348°
2026-05-05 14:23 48.54013 11.40895 17194 ft 317 kts 348°
2026-05-05 14:23 48.56202 11.40277 17973 ft 322 kts 344°
2026-05-05 14:23 48.58338 11.39206 18639 ft 326 kts 338°
2026-05-05 14:24 48.60478 11.38037 19343 ft 329 kts 337°
2026-05-05 14:24 48.62641 11.36841 20052 ft 332 kts 337°
2026-05-05 14:24 48.64825 11.35626 20775 ft 336 kts 338°
2026-05-05 14:24 48.67031 11.34400 21460 ft 340 kts 338°
2026-05-05 14:25 48.69264 11.33165 22148 ft 344 kts 338°
2026-05-05 14:25 48.71529 11.31910 22832 ft 348 kts 338°
2026-05-05 14:25 48.73829 11.30631 23273 ft 361 kts 338°
2026-05-05 14:25 48.76248 11.29282 23406 ft 380 kts 338°
2026-05-05 14:26 48.78792 11.27867 23523 ft 399 kts 338°
2026-05-05 14:26 48.81455 11.26387 23639 ft 416 kts 338°
2026-05-05 14:26 48.84226 11.24848 23787 ft 433 kts 338°
2026-05-05 14:26 48.87098 11.23253 24003 ft 444 kts 338°
2026-05-05 14:27 48.90028 11.21621 24406 ft 450 kts 338°
2026-05-05 14:27 48.92968 11.19984 24859 ft 453 kts 338°
2026-05-05 14:27 48.95944 11.18325 25347 ft 457 kts 338°
2026-05-05 14:27 48.98937 11.16655 25827 ft 460 kts 338°
2026-05-05 14:28 49.01957 11.14969 26284 ft 463 kts 338°
2026-05-05 14:28 49.04986 11.13273 26705 ft 466 kts 338°
2026-05-05 14:28 49.08037 11.11560 27119 ft 469 kts 338°
2026-05-05 14:28 49.11106 11.09832 27528 ft 472 kts 338°
2026-05-05 14:29 49.14192 11.08089 27913 ft 476 kts 338°
2026-05-05 14:29 49.17315 11.06321 28288 ft 479 kts 338°
2026-05-05 14:29 49.20448 11.04548 28665 ft 482 kts 338°
2026-05-05 14:29 49.23601 11.02767 29070 ft 484 kts 338°
2026-05-05 14:30 49.26769 11.00976 29436 ft 487 kts 337°
2026-05-05 14:30 49.29998 10.99147 29814 ft 490 kts 337°
2026-05-05 14:30 49.33200 10.97321 30129 ft 492 kts 336°
2026-05-05 14:30 49.36273 10.95064 30543 ft 488 kts 327°
2026-05-05 14:31 49.39065 10.92175 31013 ft 482 kts 318°
2026-05-05 14:31 49.41530 10.88738 31485 ft 476 kts 309°
2026-05-05 14:31 49.43675 10.84893 31736 ft 473 kts 305°
2026-05-05 14:31 49.45741 10.81000 31792 ft 468 kts 304°
2026-05-05 14:32 49.47797 10.77101 32077 ft 469 kts 304°
2026-05-05 14:32 49.49842 10.73205 32575 ft 468 kts 304°
2026-05-05 14:32 49.51884 10.69311 33079 ft 466 kts 304°
2026-05-05 14:32 49.53911 10.65439 33598 ft 464 kts 304°
2026-05-05 14:33 49.55933 10.61573 34076 ft 463 kts 304°
2026-05-05 14:33 49.57948 10.57720 34512 ft 461 kts 304°
2026-05-05 14:33 49.59958 10.53875 34974 ft 460 kts 304°
2026-05-05 14:33 49.61963 10.50032 35435 ft 458 kts 304°
2026-05-05 14:34 49.63957 10.46204 35750 ft 458 kts 304°
2026-05-05 14:34 49.66017 10.42443 35808 ft 460 kts 309°
2026-05-05 14:34 49.70546 10.35433 35799 ft 462 kts 310°
2026-05-05 14:35 49.75088 10.28398 35804 ft 462 kts 310°
2026-05-05 14:35 49.79615 10.21359 35802 ft 461 kts 310°
2026-05-05 14:36 49.84136 10.14314 35805 ft 461 kts 310°
2026-05-05 14:36 49.88645 10.07253 35805 ft 461 kts 310°
2026-05-05 14:37 49.93183 10.00131 35815 ft 461 kts 310°
2026-05-05 14:37 49.97693 9.93041 35806 ft 461 kts 310°
2026-05-05 14:38 50.02195 9.85923 35818 ft 461 kts 310°
2026-05-05 14:38 50.06637 9.78752 35818 ft 458 kts 305°
2026-05-05 14:39 50.10256 9.70682 35821 ft 453 kts 298°
2026-05-05 14:39 50.13733 9.62488 35834 ft 453 kts 299°
2026-05-05 14:40 50.17211 9.54292 35813 ft 454 kts 299°
2026-05-05 14:40 50.20692 9.46069 35806 ft 454 kts 299°
2026-05-05 14:41 50.24166 9.37811 35805 ft 455 kts 299°
2026-05-05 14:41 50.27632 9.29550 35801 ft 455 kts 299°
2026-05-05 14:42 50.31094 9.21276 35824 ft 454 kts 298°
2026-05-05 14:42 50.34298 9.12811 35815 ft 448 kts 288°
2026-05-05 14:43 50.36266 9.03643 35801 ft 443 kts 282°
2026-05-05 14:43 50.38095 8.94425 35799 ft 443 kts 282°
2026-05-05 14:44 50.39929 8.85194 35804 ft 444 kts 282°
2026-05-05 14:44 50.41750 8.75951 35801 ft 444 kts 282°
2026-05-05 14:45 50.43571 8.66631 35803 ft 444 kts 282°
2026-05-05 14:45 50.44975 8.57283 35805 ft 438 kts 274°
2026-05-05 14:46 50.45916 8.47819 35810 ft 439 kts 274°
2026-05-05 14:46 50.46851 8.38357 35811 ft 439 kts 274°
2026-05-05 14:47 50.47790 8.28885 35814 ft 440 kts 274°
2026-05-05 14:47 50.48719 8.19373 35814 ft 442 kts 274°
2026-05-05 14:48 50.49637 8.09836 35809 ft 442 kts 274°
2026-05-05 14:48 50.50556 8.00315 35808 ft 441 kts 274°
2026-05-05 14:49 50.51463 7.90787 35815 ft 441 kts 274°
2026-05-05 14:49 50.52362 7.81233 35814 ft 442 kts 274°
2026-05-05 14:50 50.53250 7.71655 35809 ft 444 kts 274°
2026-05-05 14:50 50.54139 7.62044 35814 ft 444 kts 274°
2026-05-05 14:51 50.55021 7.52425 35818 ft 445 kts 273°
2026-05-05 14:51 50.55841 7.42796 35845 ft 442 kts 269°
2026-05-05 14:52 50.55946 7.33170 35833 ft 441 kts 266°
2026-05-05 14:52 50.56012 7.23513 35829 ft 441 kts 266°
2026-05-05 14:53 50.56047 7.13863 35825 ft 441 kts 264°
2026-05-05 14:53 50.55858 7.04174 35826 ft 440 kts 263°
2026-05-05 14:54 50.55618 6.96205 35842 ft 441 kts 263°
2026-05-05 14:54 50.55355 6.86568 35838 ft 441 kts 263°
2026-05-05 14:55 50.55128 6.76931 35838 ft 441 kts 263°
2026-05-05 14:55 50.55198 6.67257 35837 ft 447 kts 273°
2026-05-05 14:56 50.56346 6.57596 35837 ft 450 kts 276°
2026-05-05 14:56 50.56934 6.52768 35564 ft 448 kts 276°
2026-05-05 14:56 50.57524 6.47888 34896 ft 449 kts 276°
2026-05-05 14:57 50.58103 6.43065 34287 ft 449 kts 275°
2026-05-05 14:57 50.58679 6.38227 33666 ft 450 kts 275°
2026-05-05 14:57 50.59253 6.33378 32987 ft 451 kts 275°
2026-05-05 14:57 50.59827 6.28512 32312 ft 453 kts 276°
2026-05-05 14:58 50.60404 6.23634 31657 ft 455 kts 276°
2026-05-05 14:58 50.60984 6.18731 31015 ft 456 kts 277°
2026-05-05 14:58 50.61568 6.13804 30608 ft 458 kts 277°
2026-05-05 14:58 50.62268 6.08904 30237 ft 462 kts 282°
2026-05-05 14:59 50.63136 6.04027 29839 ft 461 kts 283°
2026-05-05 14:59 50.64032 5.99190 28727 ft 461 kts 283°
2026-05-05 14:59 50.64954 5.94336 27484 ft 465 kts 284°
2026-05-05 14:59 50.65890 5.89457 26511 ft 464 kts 284°
2026-05-05 15:00 50.66814 5.84632 25823 ft 456 kts 284°
2026-05-05 15:00 50.67413 5.81471 25383 ft 451 kts 284°
2026-05-05 15:00 50.68589 5.75172 24426 ft 445 kts 283°
2026-05-05 15:00 50.69447 5.70510 23710 ft 441 kts 283°
2026-05-05 15:01 50.70292 5.65877 22949 ft 437 kts 283°
2026-05-05 15:01 50.71127 5.61288 22207 ft 432 kts 283°
2026-05-05 15:01 50.71950 5.56754 21523 ft 427 kts 283°
2026-05-05 15:01 50.72762 5.52286 20843 ft 422 kts 283°
2026-05-05 15:02 50.73569 5.47857 20173 ft 418 kts 283°
2026-05-05 15:02 50.74369 5.43465 19542 ft 414 kts 283°
2026-05-05 15:02 50.75159 5.39120 18948 ft 410 kts 283°
2026-05-05 15:02 50.75857 5.34784 18372 ft 405 kts 277°
2026-05-05 15:03 50.75815 5.30386 17784 ft 399 kts 258°
2026-05-05 15:03 50.75152 5.26167 17189 ft 393 kts 253°
2026-05-05 15:03 50.74449 5.21970 16611 ft 388 kts 253°
2026-05-05 15:03 50.73762 5.17935 16049 ft 385 kts 253°
2026-05-05 15:04 50.73049 5.13820 15473 ft 382 kts 252°
2026-05-05 15:04 50.72348 5.09831 14794 ft 381 kts 253°
2026-05-05 15:04 50.71630 5.05770 14270 ft 376 kts 253°
2026-05-05 15:04 50.70921 5.01846 13804 ft 369 kts 253°
2026-05-05 15:05 50.69503 4.94209 12542 ft 356 kts 253°
2026-05-05 15:05 50.68806 4.90471 11512 ft 355 kts 253°
2026-05-05 15:05 50.68105 4.86763 10677 ft 348 kts 253°
2026-05-05 15:06 50.67425 4.83207 10209 ft 331 kts 253°
2026-05-05 15:06 50.66776 4.79837 9937 ft 311 kts 253°
2026-05-05 15:06 50.66162 4.76651 9685 ft 298 kts 253°
2026-05-05 15:06 50.65577 4.73617 9408 ft 282 kts 253°
2026-05-05 15:07 50.65008 4.70669 8725 ft 283 kts 253°
2026-05-05 15:07 50.64428 4.67686 7952 ft 286 kts 253°
2026-05-05 15:07 50.63842 4.64684 7269 ft 286 kts 253°
2026-05-05 15:07 50.63260 4.61703 6657 ft 284 kts 253°
2026-05-05 15:08 50.62697 4.58732 6030 ft 282 kts 257°
2026-05-05 15:08 50.62640 4.55696 5389 ft 277 kts 280°
2026-05-05 15:08 50.62950 4.52719 4738 ft 275 kts 283°
2026-05-05 15:08 50.63279 4.49752 4167 ft 271 kts 282°
2026-05-05 15:09 50.63618 4.46890 3907 ft 262 kts 287°
2026-05-05 15:09 50.64367 4.44365 3651 ft 250 kts 309°
2026-05-05 15:09 50.65577 4.42496 3423 ft 239 kts 329°
2026-05-05 15:09 50.67057 4.41417 3225 ft 233 kts 348°
2026-05-05 15:10 50.68644 4.41155 3022 ft 227 kts
2026-05-05 15:10 50.70169 4.41623 2812 ft 221 kts 15°
2026-05-05 15:10 50.71632 4.42216 2607 ft 214 kts 15°
2026-05-05 15:10 50.73049 4.42789 2404 ft 207 kts 15°
2026-05-05 15:11 50.74438 4.43351 2197 ft 200 kts 15°
2026-05-05 15:11 50.75755 4.43884 2058 ft 191 kts 16°
2026-05-05 15:11 50.77006 4.44390 2001 ft 179 kts 15°
2026-05-05 15:11 50.78165 4.44860 2003 ft 166 kts 15°
2026-05-05 15:12 50.79273 4.45310 1991 ft 163 kts 16°
2026-05-05 15:12 50.80336 4.45741 1913 ft 154 kts 16°
2026-05-05 15:12 50.81342 4.46149 1728 ft 144 kts 17°
2026-05-05 15:12 50.82246 4.46515 1563 ft 126 kts 18°
2026-05-05 15:13 50.83072 4.46851 1396 ft 119 kts 18°
2026-05-05 15:13 50.83873 4.47177 1231 ft 118 kts 16°
2026-05-05 15:13 50.84672 4.47503 1069 ft 118 kts 17°
2026-05-05 15:13 50.85473 4.47831 932 ft 120 kts 17°
2026-05-05 15:14 50.86274 4.48156 748 ft 117 kts 17°
2026-05-05 15:14 50.87066 4.48480 581 ft 117 kts 17°
2026-05-05 15:14 50.87861 4.48799 414 ft 117 kts 16°
2026-05-05 15:14 50.88647 4.49119 243 ft 117 kts 16°
2026-05-05 15:15 50.89416 4.49433 170 ft 106 kts 14°
2026-05-05 15:15 50.90000 4.49675 134 ft 61 kts 14°
2026-05-05 15:15 50.90256 4.49693 127 ft 23 kts 347°
2026-05-05 15:15 50.90373 4.49640 124 ft 13 kts 342°
2026-05-05 15:16 50.90440 4.49561 123 ft 13 kts 311°
2026-05-05 15:16 50.90430 4.49420 121 ft 15 kts 245°
2026-05-05 15:16 50.90385 4.49265 123 ft 14 kts 245°
2026-05-05 15:16 50.90352 4.49149 124 ft 12 kts 245°
2026-05-05 15:17 50.90322 4.49046 121 ft 10 kts 245°
2026-05-05 15:17 50.90295 4.48950 125 ft 7 kts 248°
2026-05-05 15:17 50.90331 4.48904 122 ft 6 kts 335°
2026-05-05 15:17 50.90358 4.48884 120 ft 5 kts 335°
2026-05-05 15:18 50.90365 4.48879 120 ft 0 kts 335°